Tracking 19149 objects as of 21-Apr-2018
HD Live streaming from Space Station
objects crossing your sky now

FENGYUN 1C DEB

Track FENGYUN 1C DEB now!
10-day predictions


NORAD ID: 31562
Int'l Code: 1999-025BZD
Perigee: 748.1 km
Apogee: 847.0 km
Inclination: 99.2 °
Period: 100.7 minutes
Semi major axis: 7168 km
RCS: 0.0141 m2 (small)
Launch date: May 10, 1999
Source: People's Republic of China (PRC)
Launch site: Taiyaun Space Center, China (TSC)

Note: This is SATELLITE DEBRIS
aabbcc
Your satellite tracking list
Your tracking list is empty




NASA's NSSDC Master Catalog

Two Line Element Set (TLE):
1 31562U 99025BZD 18109.58782839 +.00000400 +00000-0 +16829-3 0  9994
2 31562 099.2213 033.7868 0069031 094.5149 266.3921 14.30392951570784
Source of the keplerian elements: AFSPC